Location: Sihaung
(22.8641°N, 94.0549°E)
Time: 17:48:38
(UTC+00:00)

USA 238 DEB - Pass Details

Date: 03 March 2021
Orbit: 995 x 1217 km, 63.4° (Epoch: 11 April)

Event Time Altitude Azimuth Distance (km) Brightness Sun altitude
Rises 14:09:20 0° 217° (SW) 3,698 6.9 -33.3°
Reaches altitude 10° 14:11:57 10° 221° (SW) 2,752 6.2 -33.9°
Enters shadow 14:18:11 55° 297° (WNW) 1,194 4.1 -35.3°
